DW0494 Weather Reports


Display with metric or nautical units.
time (UTC)temp
F
wind
direction
speed
MPH
gust
MPH
rain 1hr
in
rain 24hr
in
rain mn
in
humidity
%
barometer
mb
20260902213404 73 15 5.0 12.0 0.00 0.15 0.00 82 1019.8
20260902212903 73 19 6.0 12.0 0.02 0.15 0.00 82 1019.6
20260902212404 73 13 4.0 13.0 0.08 0.15 0.00 82 1019.5
20260902211904 72 20 5.0 13.0 0.10 0.15 0.00 83 1019.4
20260902211404 72 28 5.0 12.0 0.10 0.15 0.00 84 1019.4
20260902210904 71 22 6.0 12.0 0.10 0.15 0.00 86 1019.5
20260902210404 70 29 5.0 12.0 0.10 0.15 0.00 87 1019.7
20260902205903 70 17 4.0 12.0 0.10 0.15 0.15 87 1019.9
20260902204903 70 25 5.0 12.0 0.10 0.15 0.15 84 1019.6
20260902204404 71 33 4.0 15.0 0.10 0.15 0.15 84 1019.7
20260902203904 70 21 8.0 22.0 0.10 0.15 0.15 84 1019.4
20260902203404 70 24 10.0 22.0 0.10 0.15 0.15 86 1019.3
20260902202903 71 17 9.0 18.0 0.09 0.14 0.14 86 1019.2
20260902202403 74 30 7.0 12.0 0.03 0.08 0.08 82 1019.6
20260902201903 77 14 5.0 8.0 0.01 0.06 0.06 83 1019.8
20260902200911 78 306 0.0 1.0 0.00 0.05 0.05 81 1019.7
20260902200404 78 226 0.0 1.0 0.00 0.05 0.05 78 1019.3
20260902195904 78 49 0.0 3.0 0.00 0.05 0.05 78 1019.1
20260902194904 78 48 1.0 3.0 0.00 0.05 0.05 78 1019.1
20260902194404 78 41 1.0 3.0 0.00 0.05 0.05 78 1019.2
20260902193903 78 32 1.0 3.0 0.00 0.05 0.05 79 1019.2
20260902193403 78 35 1.0 3.0 0.00 0.05 0.05 79 1019.2
20260902192903 78 15 1.0 3.0 0.00 0.05 0.05 80 1019.3
20260902192403 78 37 1.0 2.0 0.00 0.05 0.05 79 1019.2
20260902190904 80 32 0.0 1.0 0.00 0.05 0.05 72 1019.1
20260902190404 80 30 0.0 0.0 0.00 0.05 0.05 71 1019.3
20260902185903 80 30 0.0 0.0 0.00 0.05 0.05 71 1019.2
20260902185403 80 30 0.0 0.0 0.00 0.05 0.05 71 1019.2
20260902184404 80 30 0.0 2.0 0.00 0.05 0.05 71 1019.1
20260902183904 80 30 0.0 2.0 0.00 0.05 0.05 71 1019.1
20260902183404 80 87 0.0 1.0 0.00 0.05 0.05 71 1019.2
20260902182903 80 110 0.0 1.0 0.00 0.05 0.05 71 1019.1
20260902182403 80 180 0.0 1.0 0.00 0.05 0.05 71 1019.1
20260902181904 80 186 0.0 1.0 0.00 0.05 0.05 71 1019.1
20260902181404 80 186 0.0 1.0 0.00 0.05 0.05 70 1019.0
20260902180404 80 161 0.0 1.0 0.00 0.05 0.05 70 1018.8
20260902175903 80 167 0.0 1.0 0.00 0.05 0.05 70 1018.8
20260902174904 81 198 0.0 1.0 0.00 0.05 0.05 69 1018.7
20260902174404 81 133 0.0 3.0 0.00 0.05 0.05 69 1018.6
20260902173403 81 335 0.0 3.0 0.00 0.05 0.05 69 1018.6
20260902172904 82 117 0.0 1.0 0.00 0.05 0.05 68 1018.6
20260902171904 82 128 0.0 2.0 0.00 0.05 0.05 67 1018.6
20260902171404 82 112 0.0 3.0 0.00 0.05 0.05 66 1018.6
20260902170903 82 160 0.0 3.0 0.00 0.05 0.05 66 1018.5
20260902170403 82 209 0.0 3.0 0.00 0.05 0.05 66 1018.5
20260902165904 83 208 1.0 2.0 0.00 0.05 0.05 66 1018.6
20260902165404 83 147 0.0 2.0 0.00 0.05 0.05 65 1018.6
20260902164903 83 149 0.0 1.0 0.00 0.05 0.05 65 1018.7
20260902164404 83 192 0.0 3.0 0.00 0.05 0.05 64 1018.6
20260902163904 84 230 0.0 3.0 0.00 0.05 0.05 63 1018.5
20260902162403 85 110 1.0 3.0 0.00 0.05 0.05 60 1018.5
20260902160904 86 193 2.0 6.0 0.00 0.05 0.05 59 1018.4
20260902160404 86 177 1.0 6.0 0.00 0.05 0.05 59 1018.5
20260902155404 87 196 1.0 7.0 0.00 0.05 0.05 58 1018.7
20260902154904 87 213 3.0 8.0 0.00 0.05 0.05 58 1018.7
20260902153904 88 215 2.0 7.0 0.00 0.05 0.05 58 1018.6
20260902153403 88 205 1.0 9.0 0.00 0.05 0.05 56 1018.4
20260902152903 89 200 3.0 9.0 0.00 0.05 0.05 55 1018.4
20260902152403 90 223 5.0 10.0 0.00 0.05 0.05 54 1018.3
20260902151903 90 197 3.0 10.0 0.00 0.05 0.05 52 1018.1
20260902151404 91 202 2.0 12.0 0.00 0.05 0.05 52 1018.1
20260902150904 91 151 1.0 12.0 0.00 0.05 0.05 51 1018.3
20260902145904 93 226 1.0 8.0 0.00 0.05 0.05 49 1018.2
20260902144404 93 222 5.0 12.0 0.00 0.05 0.05 46 1018.3
20260902143904 93 206 4.0 9.0 0.00 0.05 0.05 45 1018.4
20260902142904 93 200 3.0 9.0 0.00 0.05 0.05 45 1018.3
20260902141903 93 227 1.0 3.0 0.00 0.05 0.05 44 1018.4
20260902141403 93 213 1.0 5.0 0.00 0.05 0.05 44 1018.3
20260902140903 94 208 2.0 7.0 0.00 0.05 0.05 44 1018.5
20260902140403 94 209 3.0 7.0 0.00 0.05 0.05 46 1018.6
20260902135903 95 206 3.0 7.0 0.00 0.05 0.05 42 1018.6
20260902135404 95 229 2.0 7.0 0.00 0.05 0.05 42 1018.7
20260902134903 96 211 1.0 5.0 0.00 0.05 0.05 43 1018.8
20260902134403 95 189 2.0 8.0 0.00 0.05 0.05 43 1018.9
20260902133903 95 117 2.0 8.0 0.00 0.05 0.05 44 1019.0
20260902132903 95 129 1.0 9.0 0.00 0.05 0.05 45 1019.0
20260902132403 95 221 4.0 9.0 0.00 0.05 0.05 45 1019.1
20260902130903 96 215 5.0 10.0 0.00 0.05 0.05 44 1019.2
20260902130403 95 202 3.0 10.0 0.00 0.05 0.05 46 1019.2
20260902125904 95 210 5.0 10.0 0.00 0.05 0.05 45 1019.2
20260902125403 95 222 4.0 8.0 0.00 0.05 0.05 45 1019.2
20260902124903 95 213 3.0 10.0 0.00 0.05 0.05 46 1019.4
20260902123904 94 214 3.0 10.0 0.00 0.05 0.05 48 1019.5
20260902123404 94 232 3.0 10.0 0.00 0.05 0.05 48 1019.5
20260902122903 94 212 3.0 10.0 0.00 0.05 0.05 50 1019.7
20260902122403 94 243 2.0 10.0 0.00 0.05 0.05 50 1019.8
20260902121404 94 222 2.0 8.0 0.00 0.05 0.05 51 1019.9
20260902120904 93 224 2.0 8.0 0.00 0.05 0.05 54 1020.0
20260902120404 93 243 3.0 8.0 0.00 0.05 0.05 53 1020.1
20260902115904 94 209 2.0 6.0 0.00 0.05 0.05 53 1020.3
20260902115404 94 216 2.0 6.0 0.00 0.05 0.05 52 1020.4
20260902114904 93 190 2.0 6.0 0.00 0.05 0.05 55 1020.5
20260902113903 93 218 2.0 6.0 0.00 0.05 0.05 56 1020.7
20260902113403 93 226 2.0 6.0 0.00 0.05 0.05 56 1020.7
20260902112904 93 203 3.0 7.0 0.00 0.05 0.05 57 1020.8
20260902112403 93 193 4.0 7.0 0.00 0.05 0.05 56 1020.9
20260902111903 93 250 3.0 6.0 0.00 0.05 0.05 56 1020.9